This is the latest recevied weather packets stored in our database for station/object K7SPS-10. If no packets are shown the sender has not sent any weather packets the latest 10 day(s).
| Time | Temp. | Humidity | Pressure | Rain* | Wind** | Luminosity | Snow |
|---|---|---|---|---|---|---|---|
| 1777727265 | 5.56° C | 88% | 1017.4 hPa | 0 mm | - | 20 W/m² | - |
| 1777726963 | 5° C | 89% | 1017.5 hPa | 0 mm | - | 15 W/m² | - |
| 1777726659 | 5° C | 89% | 1017.5 hPa | 0 mm | - | 11 W/m² | - |
| 1777726357 | 5° C | 88% | 1017.1 hPa | 0 mm | - | 8 W/m² | - |
| 1777726053 | 5.56° C | 89% | 1017.5 hPa | 0 mm | - | 5 W/m² | - |
| 1777725750 | 5.56° C | 89% | 1017.6 hPa | 0 mm | - | 3 W/m² | - |
| 1777725449 | 5.56° C | 89% | 1017.6 hPa | 0 mm | - | 2 W/m² | - |
| 1777725145 | 5.56° C | 88% | 1017.8 hPa | 0 mm | - | 1 W/m² | - |
| 1777724842 | 5.56° C | 87% | 1017.6 hPa | 0 mm | - | 1 W/m² | - |
| 1777724538 | 5.56° C | 87% | 1017.6 hPa | 0 mm | - | 0 W/m² | - |
| 1777724237 | 6.11° C | 86% | 1017.5 hPa | 0 mm | - | 0 W/m² | - |
| 1777723934 | 6.11° C | 86% | 1017.3 hPa | 0 mm | - | 0 W/m² | - |
| 1777723630 | 6.11° C | 85% | 1017.3 hPa | 0 mm | - | 0 W/m² | - |
| 1777723327 | 6.11° C | 85% | 1017.5 hPa | 0 mm | - | 0 W/m² | - |
| 1777723026 | 6.11° C | 84% | 1017.3 hPa | 0 mm | - | 0 W/m² | - |
| 1777722721 | 6.11° C | 84% | 1017.1 hPa | 0 mm | - | 0 W/m² | - |
| 1777722417 | 6.11° C | 83% | 1017.5 hPa | 0 mm | - | 0 W/m² | - |
| 1777722115 | 6.67° C | 82% | 1017.5 hPa | 0 mm | - | 0 W/m² | - |
| 1777721812 | 6.67° C | 82% | 1017.4 hPa | 0 mm | - | 0 W/m² | - |
| 1777721510 | 6.67° C | 81% | 1017.4 hPa | 0 mm | - | 0 W/m² | - |
| 1777721208 | 7.22° C | 80% | 1017.5 hPa | 0 mm | - | 0 W/m² | - |
| 1777720905 | 7.22° C | 79% | 1017.3 hPa | 0 mm | - | 0 W/m² | - |
| 1777720602 | 7.22° C | 79% | 1017.6 hPa | 0 mm | - | 0 W/m² | - |
| 1777720300 | 6.67° C | 82% | 1017.3 hPa | 0 mm | - | 0 W/m² | - |
| 1777719998 | 6.11° C | 84% | 1017.1 hPa | 0 mm | - | 0 W/m² | - |
* Rain latest hour (hover to see other rain measurements)
** Current wind speed in m/s (hover to see current wind gust speed)